{"data":{"norad_id":64467,"epoch":"2026-05-24T09:23:15.747072Z","epoch_age_seconds":117729,"freshness":"FRESH","line1":"1 64467U 25131A   26144.39115448 -.00000295  00000+0  00000+0 0  9996","line2":"2 64467   0.0529  50.1364 0000882  87.8554 342.8243  1.00267943  3325","mean_motion":1.00267943,"eccentricity":8.82e-5,"inclination_deg":0.0529,"raan_deg":50.1364,"arg_perigee_deg":87.8554,"mean_anomaly_deg":342.8243,"bstar":0,"rev_number":332,"period_min":1436.1519314304,"perigee_km":35783.953023293,"apogee_km":35791.391072009,"semimajor_km":42165.809047651,"source":"CELESTRAK","updated_at":"2026-05-25T13:38:04.541624Z"}}